Location: Brno
(49.2000°N, 16.6330°E)
Time: 22:46:11
(UTC+01:00)

Cosmos 2227 - Visible Passes

Search period start: 24 March 2017 00:00
Search period end: 03 April 2017 01:00
Orbit: 833 x 863 km, 71.0° (Epoch: 23 March)

Date Brightness Start Highest point End Pass type
(mag) Time Alt. Az. Time Alt. Az. Time Alt. Az.
24 Mar 5.9 00:42:51 10° NNW 00:46:19 30° N 00:46:19 30° N visible
24 Mar 6.3 02:27:04 10° NW 02:28:14 16° NW 02:28:14 16° NW visible
24 Mar 6.8 19:11:35 10° WNW 19:14:44 15° NNW 19:17:53 10° N visible
24 Mar 6.8 22:46:51 10° N 22:49:06 12° NNE 22:51:17 10° NE visible
25 Mar 5.9 00:29:44 10° NNW 00:33:13 30° NNE 00:33:13 30° NNE visible
25 Mar 6.3 02:13:57 10° NW 02:15:07 16° NW 02:15:07 16° NW visible
25 Mar 6.8 18:58:25 10° WNW 19:01:36 15° NNW 19:04:47 10° N visible
25 Mar 6.8 22:33:46 10° N 22:35:58 12° NNE 22:38:10 10° NE visible
26 Mar 5.9 00:16:38 10° NNW 00:20:08 30° NNE 00:20:08 30° NNE visible
26 Mar 6.3 03:00:50 10° NW 03:02:04 17° NW 03:02:04 17° NW visible
26 Mar 6.8 19:45:15 10° WNW 19:48:28 15° NNW 19:51:42 10° N visible
26 Mar 6.8 23:20:40 10° N 23:22:50 12° NNE 23:25:00 10° NE visible
27 Mar 5.9 01:03:32 10° NNW 01:07:07 30° NNE 01:07:07 30° NNE visible
27 Mar 6.3 02:47:42 10° NW 02:49:02 17° NW 02:49:02 17° NW visible
27 Mar 6.7 23:07:35 10° N 23:09:42 12° NNE 23:11:49 10° NE visible
28 Mar 5.8 00:50:25 10° NNW 00:54:06 30° NNE 00:54:06 30° NNE visible
28 Mar 6.3 02:34:35 10° NW 02:36:02 18° NW 02:36:02 18° NW visible
28 Mar 6.7 22:54:30 10° N 22:56:34 12° NNE 22:58:38 10° NE visible
29 Mar 5.8 00:37:20 10° NNW 00:41:08 31° NNE 00:41:08 31° NNE visible
29 Mar 6.2 02:21:28 10° NW 02:23:04 19° NW 02:23:04 19° NW visible
29 Mar 6.7 22:41:25 10° N 22:43:26 12° NNE 22:45:27 10° NE visible
30 Mar 5.7 00:24:12 10° NNW 00:28:10 32° NNE 00:28:10 32° NNE visible
30 Mar 6.2 02:08:21 10° NW 02:10:07 20° NW 02:10:07 20° NW visible
30 Mar 6.7 22:28:20 10° N 22:30:18 12° NNE 22:32:16 10° NE visible
31 Mar 5.7 00:11:07 10° NNW 00:15:14 32° NNE 00:15:14 32° NNE visible
31 Mar 6.1 01:55:14 10° NW 01:57:11 21° NW 01:57:11 21° NW visible
31 Mar 6.7 22:15:15 10° N 22:17:10 12° NNE 22:19:05 10° NE visible
31 Mar 5.6 23:58:00 10° NNW 00:02:19 33° NNE 00:02:19 33° NNE visible
01 Apr 6.1 01:42:08 10° NW 01:44:15 23° NW 01:44:15 23° NW visible
01 Apr 6.6 22:02:10 10° N 22:04:02 11° NNE 22:05:53 10° NE visible
01 Apr 5.5 23:44:54 10° NNW 23:49:25 33° NNE 23:49:25 33° NNE visible
02 Apr 6.0 01:29:00 10° NW 01:31:21 24° NW 01:31:21 24° NW visible
02 Apr 6.6 21:49:05 10° N 21:50:54 11° NNE 21:52:42 10° NE visible
02 Apr 5.5 23:31:47 10° NNW 23:36:32 33° NE 23:36:32 33° NE visible
